Weather History for Houlton, ME

Change the Weather History Date:

Monday, July 29, 2013

  Actual Average Record
Temperature  
Mean Temperature 65 °F 66 °F  
Max Temperature 71 °F 78 °F 92 °F (1970)
Min Temperature 58 °F 54 °F 42 °F (1952)
Degree Days  
Heating Degree Days 0 2  
Month to date heating degree days 37 61  
Since 1 June heating degree days 234 242  
Since 1 July heating degree days 37 61  
Cooling Degree Days 0 3  
Month to date cooling degree days 106 85  
Year to date cooling degree days 146 124  
Since 1 June cooling degree days 142 120  
Growing Degree Days 14 (Base 50)    
Moisture  
Dew Point 61 °F    
Average Humidity 86    
Maximum Humidity 93    
Minimum Humidity 78    
Precipitation  
Precipitation 0.10 in 0.12 in 2.12 in (1958)
Month to date precipitation 6.54 3.41  
Year to date precipitation 22.85 21.69  
Sea Level Pressure  
Sea Level Pressure 30.04 in    
Wind  
Wind Speed 4 mph (SE)    
Max Wind Speed 15 mph    
Max Gust Speed 20 mph    
Visibility 8 miles    
Events Rain    
T = Trace of Precipitation, MM = Missing Value Source: NWS Daily Summary

Daily Weather History Graph

Daily Weather History Graph

Search for Another Location

Airport:

Trip Planner

Search our weather history database for the weather conditions in past years. The results will help you decide how hot, cold, wet, or windy it might be!

Date:

Astronomy

Jul. 29, 2013 Rise Set
Actual Time 5:09 AM EDT 8:04 PM EDT
Civil Twilight 4:34 AM EDT 8:39 PM EDT
Nautical Twilight 3:49 AM EDT 9:24 PM EDT
Astronomical Twilight 2:56 AM EDT 10:17 PM EDT
Moon 11:30 PM EDT (7/29) 1:17 PM EDT (7/29)
Length of Visible Light 16h 04m
Length of Day
14h 54m
Waning Gibbous, 51% of the Moon is Illuminated
Jul 29
Waning Gibbous
Jul 29
Last Quarter
Aug 6
New
Aug 14
First Quarter
Aug 20
Full

Hourly Weather History & Observations

Time (EDT) Temp. Dew Point Humidity Pressure Visibility Wind Dir Wind Speed Gust Speed Precip Events Conditions
12:53 AM 61.0 °F 59.0 °F 93% 30.05 in 4.0 mi ESE 6.9 mph - 0.00 in Rain Light Rain
1:05 AM 60.8 °F 59.0 °F 94% 30.05 in 5.0 mi ESE 5.8 mph - 0.00 in   Overcast
1:18 AM 60.8 °F 59.0 °F 94% 30.05 in 8.0 mi ESE 8.1 mph - 0.00 in   Overcast
1:35 AM 60.8 °F 57.2 °F 88% 30.05 in 7.0 mi ESE 12.7 mph 19.6 mph 0.00 in   Overcast
1:53 AM 60.1 °F 57.9 °F 93% 30.05 in 5.0 mi ESE 8.1 mph - 0.00 in Rain Light Rain
2:06 AM 60.8 °F 57.2 °F 88% 30.04 in 8.0 mi ESE 6.9 mph - 0.00 in   Overcast
2:53 AM 59.0 °F 57.0 °F 93% 30.04 in 10.0 mi East 6.9 mph - 0.00 in   Overcast
3:53 AM 59.0 °F 57.0 °F 93% 30.04 in 9.0 mi Calm Calm - 0.05 in Rain Light Rain
4:22 AM 59.0 °F 55.4 °F 88% 30.04 in 7.0 mi ESE 4.6 mph - 0.02 in Rain Light Rain
4:53 AM 57.9 °F 55.9 °F 93% 30.04 in 10.0 mi Calm Calm - 0.03 in Rain Light Rain
5:03 AM 57.2 °F 55.4 °F 94% 30.03 in 6.0 mi Calm Calm - 0.00 in Rain Light Rain
5:53 AM 57.9 °F 55.9 °F 93% 30.04 in 4.0 mi NNE 3.5 mph - 0.02 in Rain Light Rain
6:53 AM 57.9 °F 55.9 °F 93% 30.04 in 9.0 mi ENE 4.6 mph - 0.00 in   Overcast
7:53 AM 57.9 °F 55.9 °F 93% 30.06 in 5.0 mi Calm Calm - N/A   Overcast
8:22 AM 59.0 °F 57.2 °F 94% 30.05 in 1.8 mi Calm Calm - N/A   Overcast
8:53 AM 59.0 °F 57.0 °F 93% 30.05 in 1.8 mi ENE 3.5 mph - N/A   Overcast
9:07 AM 59.0 °F 57.2 °F 94% 30.05 in 2.5 mi Calm Calm - N/A   Overcast
9:16 AM 60.8 °F 57.2 °F 88% 30.05 in 4.0 mi Variable 5.8 mph - N/A   Overcast
9:53 AM 61.0 °F 57.9 °F 90% 30.04 in 10.0 mi East 6.9 mph - N/A   Overcast
10:53 AM 62.1 °F 59.0 °F 90% 30.05 in 10.0 mi ESE 4.6 mph - N/A   Overcast
11:53 AM 64.0 °F 61.0 °F 90% 30.04 in 10.0 mi South 4.6 mph - N/A   Overcast
12:53 PM 66.9 °F 61.0 °F 81% 30.03 in 10.0 mi ESE 4.6 mph - N/A   Overcast
1:53 PM 69.1 °F 62.1 °F 78% 30.02 in 10.0 mi Calm Calm - N/A   Overcast
2:30 PM 69.8 °F 62.6 °F 78% 30.03 in 10.0 mi South 4.6 mph - N/A   Overcast
2:53 PM 69.1 °F 63.0 °F 81% 30.02 in 10.0 mi SE 3.5 mph - N/A   Overcast
3:53 PM 70.0 °F 64.0 °F 81% 30.01 in 10.0 mi ESE 4.6 mph - N/A   Overcast
4:53 PM 70.0 °F 64.0 °F 81% 30.01 in 10.0 mi ESE 6.9 mph - N/A   Overcast
5:53 PM 70.0 °F 64.9 °F 84% 30.01 in 10.0 mi SE 5.8 mph - N/A   Overcast
6:53 PM 69.1 °F 64.9 °F 87% 30.01 in 10.0 mi SE 4.6 mph - N/A   Overcast
7:34 PM 69.8 °F 64.4 °F 83% 30.02 in 10.0 mi SE 3.5 mph - N/A   Overcast
7:51 PM 69.8 °F 64.4 °F 83% 30.02 in 10.0 mi SSE 3.5 mph - N/A   Overcast
7:53 PM 69.1 °F 64.0 °F 84% 30.03 in 10.0 mi SSE 4.6 mph - N/A   Overcast
8:19 PM 68.0 °F 64.4 °F 88% 30.03 in 10.0 mi SSE 3.5 mph - N/A   Overcast
8:26 PM 68.0 °F 64.4 °F 88% 30.03 in 10.0 mi Calm Calm - N/A   Overcast
8:40 PM 68.0 °F 64.4 °F 88% 30.03 in 10.0 mi SSE 3.5 mph - N/A   Overcast
8:53 PM 66.9 °F 64.0 °F 90% 30.04 in 10.0 mi Calm Calm - N/A   Mostly Cloudy
9:04 PM 66.2 °F 64.4 °F 94% 30.04 in 10.0 mi Calm Calm - N/A   Mostly Cloudy
9:28 PM 66.2 °F 64.4 °F 94% 30.04 in 10.0 mi Calm Calm - N/A   Mostly Cloudy
9:50 PM 66.2 °F 64.4 °F 94% 30.04 in 10.0 mi Calm Calm - N/A   Overcast
9:53 PM 66.9 °F 64.0 °F 90% 30.04 in 10.0 mi SE 3.5 mph - N/A   Overcast
10:20 PM 66.2 °F 64.4 °F 94% 30.04 in 10.0 mi Calm Calm - N/A   Overcast
10:39 PM 66.2 °F 64.4 °F 94% 30.05 in 10.0 mi Variable 3.5 mph - N/A   Overcast
10:53 PM 66.9 °F 64.0 °F 90% 30.04 in 10.0 mi SE 3.5 mph - N/A   Overcast
11:53 PM 66.9 °F 64.9 °F 93% 30.04 in 10.0 mi SSE 5.8 mph - N/A   Overcast